CW9928 Weather Reports


Display with metric or nautical units.
time (UTC)temp
F
wind
direction
speed
MPH
gust
MPH
rain 1hr
in
rain 24hr
in
rain mn
in
humidity
%
barometer
mb
20260903143602 77 265 1.0 8.0 0.00 0.40 0.00 86 1014.2
20260903143046 77 239 2.0 8.0 0.00 0.40 0.00 86 1014.1
20260903142523 76 231 0.0 4.0 0.00 0.40 0.00 87 1014.1
20260903142002 76 231 0.0 6.0 0.00 0.40 0.00 87 1014.2
20260903141546 76 231 1.0 6.0 0.00 0.40 0.00 87 1014.2
20260903141027 76 233 0.0 6.0 0.00 0.40 0.00 88 1014.2
20260903140508 75 233 2.0 7.0 0.00 0.40 0.00 88 1014.1
20260903140059 75 250 0.0 5.0 0.00 0.40 0.00 89 1014.1
20260903135512 75 250 0.0 5.0 0.00 0.40 0.00 89 1014.1
20260903135056 75 242 0.0 4.0 0.00 0.40 0.00 89 1014.3
20260903134541 74 243 0.0 6.0 0.00 0.40 0.00 90 1014.3
20260903134017 74 225 0.0 5.0 0.00 0.40 0.00 91 1014.2
20260903133603 73 220 1.0 4.0 0.00 0.40 0.00 91 1014.2
20260903133041 73 220 0.0 6.0 0.00 0.40 0.00 92 1014.2
20260903132520 72 220 1.0 6.0 0.00 0.40 0.00 93 1014.3
20260903132000 72 219 0.0 0.0 0.00 0.40 0.00 94 1014.4
20260903131545 72 219 0.0 0.0 0.00 0.40 0.00 94 1014.4
20260903131025 72 219 0.0 0.0 0.00 0.41 0.00 95 1014.5
20260903130504 71 219 0.0 2.0 0.00 0.41 0.00 95 1014.6
20260903130055 71 219 0.0 2.0 0.00 0.41 0.00 95 1014.6
20260903125510 71 219 0.0 0.0 0.00 0.41 0.00 95 1014.6
20260903125055 71 219 0.0 0.0 0.00 0.41 0.00 95 1014.6
20260903124534 71 219 0.0 0.0 0.00 0.41 0.00 95 1014.6
20260903124014 71 219 0.0 0.0 0.00 0.41 0.00 95 1014.6
20260903123558 71 219 0.0 0.0 0.00 0.41 0.00 95 1014.7
20260903123039 71 219 0.0 0.0 0.00 0.41 0.00 95 1014.6
20260903122523 70 219 0.0 1.0 0.00 0.41 0.00 95 1014.7
20260903122103 70 219 0.0 1.0 0.00 0.41 0.00 95 1014.7
20260903121542 70 219 0.0 2.0 0.00 0.41 0.00 95 1014.7
20260903121025 70 219 0.0 0.0 0.00 0.59 0.00 95 1014.7
20260903120503 70 219 0.0 2.0 0.00 0.59 0.00 95 1014.6
20260903120051 70 219 0.0 2.0 0.00 0.59 0.00 95 1014.6
20260903115508 70 219 0.0 4.0 0.00 0.59 0.00 95 1014.7
20260903115052 69 219 0.0 4.0 0.00 0.59 0.00 95 1014.6
20260903114552 69 219 0.0 0.0 0.00 0.59 0.00 95 1014.6
20260903114012 69 219 0.0 0.0 0.00 0.59 0.00 95 1014.5
20260903113556 69 219 0.0 2.0 0.00 0.59 0.00 95 1014.5
20260903113036 69 219 0.0 2.0 0.00 0.59 0.00 95 1014.4
20260903112519 69 219 0.0 0.0 0.00 0.59 0.00 95 1014.3
20260903112100 68 219 0.0 0.0 0.00 0.59 0.00 95 1014.3
20260903111540 68 219 0.0 0.0 0.00 0.59 0.00 95 1014.2
20260903111020 68 219 0.0 0.0 0.00 0.59 0.00 95 1014.4
20260903110501 68 219 0.0 0.0 0.00 0.59 0.00 95 1014.3
20260903110049 68 219 0.0 0.0 0.00 0.59 0.00 95 1014.2
20260903105509 68 219 0.0 0.0 0.00 0.59 0.00 95 1014.1
20260903105051 68 219 0.0 0.0 0.00 0.59 0.00 95 1013.9
20260903104531 68 219 0.0 0.0 0.00 0.59 0.00 95 1013.8
20260903104011 69 219 0.0 0.0 0.00 0.59 0.00 95 1013.7
20260903103554 69 219 0.0 0.0 0.00 0.59 0.00 95 1013.6
20260903103036 69 219 0.0 0.0 0.00 0.59 0.00 95 1013.6
20260903102515 69 219 0.0 0.0 0.00 0.59 0.00 95 1013.6
20260903102059 69 219 0.0 0.0 0.00 0.59 0.00 95 1013.6
20260903101538 69 219 0.0 0.0 0.00 0.59 0.00 95 1013.6
20260903101019 69 219 0.0 0.0 0.00 0.59 0.00 95 1013.6
20260903100602 69 219 0.0 0.0 0.00 0.59 0.00 95 1013.5
20260903100043 69 219 0.0 0.0 0.00 0.59 0.00 95 1013.4
20260903095504 69 219 0.0 0.0 0.00 0.59 0.00 95 1013.3
20260903095048 69 219 0.0 0.0 0.00 0.59 0.00 95 1013.5
20260903094534 69 219 0.0 0.0 0.00 0.59 0.00 95 1013.4
20260903094008 69 219 0.0 0.0 0.00 0.59 0.00 95 1013.3
20260903093556 69 219 0.0 0.0 0.00 0.59 0.00 95 1013.4
20260903093048 69 219 0.0 0.0 0.00 0.59 0.00 95 1013.3
20260903092512 69 219 0.0 0.0 0.00 0.59 0.00 95 1013.2
20260903092057 69 219 0.0 0.0 0.00 0.59 0.00 95 1013.1
20260903091537 69 219 0.0 0.0 0.00 0.59 0.00 95 1013.1
20260903091016 69 219 0.0 0.0 0.00 0.59 0.00 95 1013.0
20260903090600 69 219 0.0 0.0 0.00 0.59 0.00 95 1012.8
20260903090040 69 219 0.0 0.0 0.00 0.59 0.00 95 1012.8
20260903085503 70 219 0.0 0.0 0.00 0.59 0.00 95 1012.8
20260903085046 70 219 0.0 0.0 0.00 0.59 0.00 95 1012.8
20260903084531 70 219 0.0 0.0 0.00 0.59 0.00 95 1012.8
20260903084007 70 219 0.0 0.0 0.00 0.59 0.00 95 1012.7
20260903083549 70 219 0.0 1.0 0.00 0.59 0.00 95 1012.7
20260903083029 70 219 0.0 1.0 0.00 0.59 0.00 95 1013.1
20260903082509 70 219 0.0 0.0 0.00 0.59 0.00 95 1012.9
20260903082053 70 219 0.0 0.0 0.00 0.59 0.00 95 1013.0
20260903081539 70 219 0.0 0.0 0.00 0.59 0.00 95 1012.9
20260903081013 70 219 0.0 0.0 0.00 0.59 0.00 95 1012.8
20260903080557 70 219 0.0 0.0 0.00 0.59 0.00 95 1012.8
20260903080018 70 219 0.0 0.0 0.00 0.59 0.00 95 1012.8
20260903075602 70 219 0.0 0.0 0.00 0.59 0.00 95 1012.7
20260903075042 70 219 0.0 0.0 0.00 0.59 0.00 95 1012.8
20260903074522 70 219 0.0 0.0 0.00 0.59 0.00 95 1012.7
20260903074002 70 219 0.0 0.0 0.00 0.59 0.00 95 1012.8
20260903073546 71 219 0.0 0.0 0.00 0.59 0.00 95 1012.9
20260903073026 71 219 0.0 0.0 0.00 0.59 0.00 95 1012.9
20260903072506 71 219 0.0 0.0 0.00 0.59 0.00 95 1012.8
20260903072050 71 219 0.0 0.0 0.00 0.59 0.00 94 1012.8
20260903071530 71 219 0.0 0.0 0.00 0.59 0.00 94 1012.7
20260903071013 71 219 0.0 0.0 0.00 0.59 0.00 94 1012.7
20260903070554 71 219 0.0 0.0 0.00 0.59 0.00 94 1012.8
20260903070035 71 219 0.0 0.0 0.00 0.59 0.00 94 1012.8
20260903065602 71 219 0.0 0.0 0.00 0.59 0.00 94 1012.8
20260903065040 71 219 0.0 0.0 0.00 0.59 0.00 94 1012.9
20260903064520 71 219 0.0 0.0 0.00 0.59 0.00 94 1013.1
20260903064105 71 219 0.0 2.0 0.00 0.59 0.00 94 1013.2
20260903063544 71 219 0.0 2.0 0.00 0.59 0.00 94 1012.9
20260903063024 70 219 0.0 0.0 0.00 0.59 0.00 94 1013.0
20260903062504 70 219 0.0 0.0 0.00 0.59 0.00 94 1012.7
20260903062048 70 219 0.0 0.0 0.00 0.59 0.00 94 1012.8
20260903061528 70 219 0.0 0.0 0.00 0.59 0.00 94 1012.8
20260903061011 70 219 0.0 0.0 0.00 0.59 0.00 94 1012.8
20260903060552 70 219 0.0 0.0 0.00 0.59 0.00 93 1012.8
20260903060014 70 219 0.0 0.0 0.00 0.59 0.00 93 1012.6
20260903055557 71 219 0.0 0.0 0.00 0.59 0.00 93 1012.6
20260903055037 71 219 0.0 0.0 0.00 0.59 0.00 93 1012.6
20260903054523 71 219 0.0 0.0 0.00 0.59 0.00 93 1012.8
20260903054101 71 219 0.0 5.0 0.00 0.59 0.00 93 1012.8
20260903053541 71 219 0.0 5.0 0.00 0.59 0.00 93 1012.8
20260903053021 71 219 0.0 6.0 0.00 0.59 0.00 93 1012.8
20260903052501 71 218 1.0 6.0 0.00 0.59 0.00 93 1012.9
20260903052045 71 244 0.0 0.0 0.00 0.59 0.00 93 1012.8
20260903051524 71 244 0.0 0.0 0.00 0.59 0.00 93 1012.6
20260903051005 71 244 0.0 2.0 0.00 0.59 0.00 93 1012.7
20260903050550 71 244 0.0 4.0 0.00 0.59 0.00 94 1012.8
20260903050029 72 244 0.0 4.0 0.00 0.59 0.00 94 1012.8
20260903045555 72 238 0.0 4.0 0.00 0.59 0.00 94 1012.8
20260903045035 71 238 1.0 5.0 0.00 0.59 0.00 94 1012.8
20260903044515 71 239 1.0 8.0 0.00 0.59 0.00 94 1012.5
20260903044059 71 244 0.0 8.0 0.00 0.59 0.00 94 1012.5
20260903043540 71 211 0.0 6.0 0.00 0.59 0.00 94 1012.6
20260903043019 71 231 1.0 6.0 0.00 0.59 0.00 94 1012.6
20260903042603 71 239 0.0 5.0 0.00 0.59 0.00 94 1012.4
20260903042044 71 239 1.0 5.0 0.00 0.59 0.00 94 1012.4
20260903041524 71 239 0.0 6.0 0.00 0.59 0.00 94 1012.1
20260903041005 70 237 2.0 6.0 0.00 0.59 0.59 95 1012.0
20260903040545 70 264 1.0 4.0 0.00 0.59 0.59 95 1012.1
20260903040025 70 264 0.0 4.0 0.00 0.59 0.59 95 1012.0
20260903035550 70 265 0.0 0.0 0.00 0.59 0.59 95 1012.0
20260903035031 70 265 0.0 5.0 0.00 0.59 0.59 95 1012.0
20260903034514 70 265 0.0 8.0 0.00 0.59 0.59 95 1012.0
20260903034055 70 264 0.0 8.0 0.00 0.59 0.59 95 1012.0
20260903033534 70 221 0.0 8.0 0.00 0.59 0.59 95 1011.8
20260903033028 70 252 2.0 5.0 0.00 0.59 0.59 95 1012.0
20260903032559 70 260 0.0 4.0 0.00 0.59 0.59 95 1011.8
20260903032039 70 260 0.0 4.0 0.00 0.59 0.59 95 1012.2
20260903031520 70 244 0.0 4.0 0.00 0.59 0.59 95 1012.3
20260903031103 70 244 0.0 7.0 0.00 0.59 0.59 95 1012.5
20260903030544 70 244 1.0 7.0 0.00 0.59 0.59 95 1012.7
20260903030028 70 258 0.0 4.0 0.00 0.59 0.59 95 1012.8
20260903025548 70 259 0.0 6.0 0.00 0.59 0.59 95 1012.8
20260903025029 70 259 1.0 6.0 0.00 0.59 0.59 95 1012.8
20260903024506 70 223 0.0 4.0 0.00 0.59 0.59 95 1013.0
20260903024050 70 223 0.0 4.0 0.00 0.59 0.59 95 1013.0
20260903023529 70 223 1.0 4.0 0.00 0.59 0.59 95 1013.1
20260903023010 70 230 0.0 1.0 0.00 0.59 0.59 95 1013.1
20260903022554 70 230 0.0 5.0 0.00 0.59 0.59 95 1013.1
20260903022033 70 230 0.0 5.0 0.01 0.59 0.59 95 1013.2
20260903021514 69 229 0.0 5.0 0.01 0.59 0.59 95 1013.2
20260903021058 69 229 1.0 5.0 0.01 0.59 0.59 95 1013.3
20260903020540 69 228 0.0 2.0 0.02 0.59 0.59 95 1013.3
20260903020122 69 228 0.0 1.0 0.05 0.59 0.59 95 1013.1
20260903015544 69 228 0.0 0.0 0.05 0.59 0.59 95 1013.0
20260903015024 69 228 0.0 0.0 0.05 0.59 0.59 95 1013.0
20260903014504 69 228 0.0 0.0 0.05 0.59 0.59 95 1013.2
20260903014048 69 228 0.0 2.0 0.05 0.59 0.59 95 1013.1
20260903013528 69 228 0.0 2.0 0.05 0.59 0.59 95 1013.0
20260903013008 69 228 0.0 0.0 0.05 0.59 0.59 95 1013.1
20260903012551 70 228 0.0 6.0 0.05 0.59 0.59 95 1012.9
20260903012032 70 228 0.0 6.0 0.04 0.57 0.57 95 1012.8
20260903011512 70 226 0.0 5.0 0.04 0.57 0.57 95 1012.8
20260903011056 70 228 1.0 5.0 0.04 0.57 0.57 95 1013.1
20260903010536 70 192 2.0 5.0 0.03 0.56 0.56 95 1013.4
20260903010120 70 85 0.0 4.0 0.01 0.54 0.54 95 1013.1
20260903005544 70 85 0.0 1.0 0.01 0.54 0.54 95 1012.9
20260903005024 70 85 0.0 0.0 0.02 0.54 0.54 95 1012.6
20260903004506 70 85 0.0 0.0 0.03 0.54 0.54 95 1011.7
20260903004046 70 85 0.0 0.0 0.03 0.54 0.54 95 1011.2
20260903003526 70 85 0.0 0.0 0.05 0.54 0.54 95 1010.6
20260903003006 70 85 0.0 0.0 0.06 0.54 0.54 95 1010.5
20260903002550 70 85 0.0 0.0 0.07 0.54 0.54 94 1010.8
20260903002029 70 85 0.0 0.0 0.09 0.54 0.54 94 1011.1
20260903001514 70 85 0.0 0.0 0.11 0.54 0.54 94 1011.5
20260903001053 70 85 0.0 0.0 0.13 0.54 0.54 94 1011.7
20260903000534 70 85 0.0 0.0 0.13 0.53 0.53 94 1012.1
20260903000119 70 85 0.0 0.0 0.13 0.53 0.53 94 1012.5
20260902235540 70 85 0.0 0.0 0.15 0.53 0.53 94 1012.9
20260902235019 70 85 0.0 0.0 0.14 0.52 0.52 94 1013.0
20260902234603 70 85 0.0 0.0 0.18 0.52 0.52 94 1013.3
20260902234047 70 85 0.0 0.0 0.31 0.51 0.51 93 1013.5
20260902233524 70 85 0.0 2.0 0.28 0.49 0.49 93 1013.6
20260902233004 70 85 0.0 6.0 0.28 0.48 0.48 93 1013.8
20260902232547 71 84 0.0 6.0 0.28 0.47 0.47 92 1013.7
20260902232027 71 34 2.0 9.0 0.26 0.45 0.45 92 1014.1
20260902231510 71 133 3.0 9.0 0.24 0.43 0.43 91 1014.7
20260902231051 72 74 0.0 8.0 0.22 0.41 0.41 91 1015.0
20260902230528 72 64 3.0 13.0 0.21 0.40 0.40 90 1015.0
20260902230116 73 302 3.0 18.0 0.21 0.40 0.40 90 1014.3
20260902225532 73 296 7.0 18.0 0.19 0.38 0.38 89 1014.8
20260902225013 74 268 1.0 12.0 0.18 0.37 0.37 87 1012.7
20260902224557 75 142 1.0 5.0 0.09 0.28 0.28 87 1014.2
20260902224036 76 277 0.0 2.0 0.01 0.20 0.20 85 1012.7
20260902223516 76 277 0.0 2.0 0.01 0.20 0.20 83 1011.9
20260902223118 77 277 0.0 6.0 0.00 0.19 0.19 82 1012.8
20260902222541 78 266 0.0 10.0 0.00 0.19 0.19 80 1013.1
20260902222021 80 40 1.0 9.0 0.00 0.19 0.19 79 1013.1
20260902221607 81 75 3.0 9.0 0.00 0.19 0.19 79 1012.9
20260902221046 82 270 0.0 5.0 0.00 0.19 0.19 80 1012.6
20260902220528 82 323 0.0 7.0 0.00 0.19 0.19 83 1012.4
20260902220108 82 239 3.0 13.0 0.00 0.19 0.19 82 1011.2
20260902215533 82 228 3.0 13.0 0.00 0.19 0.19 82 1010.7
20260902215013 83 218 2.0 7.0 0.00 0.19 0.19 82 1010.6
20260902214555 83 241 1.0 9.0 0.00 0.19 0.19 82 1010.4
20260902214034 83 227 2.0 9.0 0.00 0.19 0.19 82 1010.2
20260902213513 83 228 2.0 5.0 0.00 0.19 0.19 82 1010.1
20260902213107 83 241 0.0 8.0 0.00 0.19 0.19 82 1010.3
20260902212537 83 246 4.0 8.0 0.00 0.19 0.19 82 1010.5
20260902212017 83 248 0.0 6.0 0.00 0.19 0.19 82 1010.3
20260902211605 83 250 0.0 6.0 0.00 0.19 0.19 82 1010.7
20260902211044 83 281 1.0 6.0 0.00 0.19 0.19 82 1011.2
20260902210521 83 237 1.0 9.0 0.00 0.19 0.19 82 1011.5
20260902210106 82 241 3.0 9.0 0.00 0.19 0.19 83 1011.7
20260902205527 82 237 1.0 8.0 0.00 0.19 0.19 84 1011.7
20260902205007 82 247 1.0 6.0 0.00 0.19 0.19 84 1011.6
20260902204553 81 223 0.0 9.0 0.00 0.19 0.19 84 1011.8
20260902204034 81 251 0.0 10.0 0.00 0.19 0.19 84 1011.9
20260902203513 81 238 2.0 10.0 0.00 0.19 0.19 84 1012.0
20260902203055 81 233 0.0 4.0 0.00 0.19 0.19 84 1012.1
20260902202535 81 233 0.0 6.0 0.00 0.19 0.19 84 1012.1
20260902202016 81 239 0.0 8.0 0.00 0.19 0.19 84 1012.4
20260902201600 81 239 2.0 8.0 0.00 0.19 0.19 83 1012.4
20260902201039 81 228 1.0 6.0 0.00 0.19 0.19 83 1012.5
20260902200520 81 229 0.0 6.0 0.00 0.19 0.19 83 1012.8
20260902195525 82 233 0.0 6.0 0.00 0.19 0.19 82 1013.1
20260902195005 82 235 0.0 5.0 0.00 0.19 0.19 82 1013.4
20260902194550 82 235 0.0 7.0 0.00 0.19 0.19 81 1013.2
20260902194031 82 239 1.0 7.0 0.00 0.19 0.19 81 1013.6
20260902193509 83 228 0.0 6.0 0.00 0.19 0.19 80 1013.5
20260902193054 83 228 1.0 7.0 0.00 0.19 0.19 80 1013.5
20260902192533 83 235 1.0 7.0 0.00 0.19 0.19 80 1013.6
20260902192013 83 235 1.0 11.0 0.00 0.19 0.19 79 1013.6
20260902191601 83 239 2.0 11.0 0.00 0.19 0.19 79 1013.7
20260902191037 83 223 2.0 11.0 0.00 0.19 0.19 80 1013.6
20260902190518 83 231 3.0 11.0 0.00 0.19 0.19 80 1013.6
20260902190108 82 229 2.0 9.0 0.00 0.19 0.19 81 1013.5
20260902185524 82 233 4.0 9.0 0.00 0.19 0.19 81 1013.7
20260902185004 82 243 4.0 7.0 0.00 0.19 0.19 80 1013.7
20260902184556 82 240 2.0 6.0 0.00 0.19 0.19 81 1013.7
20260902184027 82 231 2.0 6.0 0.00 0.19 0.19 81 1013.8
20260902183507 82 251 0.0 4.0 0.00 0.19 0.19 81 1013.8
20260902183105 81 251 1.0 3.0 0.00 0.19 0.19 81 1013.7
20260902182532 81 252 1.0 9.0 0.00 0.19 0.19 81 1013.7
20260902182011 81 252 3.0 9.0 0.00 0.19 0.19 81 1013.8
20260902181555 81 187 1.0 8.0 0.00 0.19 0.19 81 1013.8
20260902181035 81 229 1.0 12.0 0.00 0.19 0.19 82 1013.8
20260902180515 81 243 2.0 9.0 0.00 0.19 0.19 82 1013.8
20260902180059 81 243 0.0 6.0 0.00 0.19 0.19 83 1013.8
20260902175521 81 221 0.0 6.0 0.00 0.19 0.19 83 1013.8
20260902175002 80 221 2.0 6.0 0.00 0.19 0.19 84 1013.7
20260902174546 80 244 2.0 8.0 0.00 0.19 0.19 84 1013.8
20260902174025 79 264 4.0 9.0 0.00 0.19 0.19 85 1013.9
20260902173505 79 237 3.0 9.0 0.00 0.19 0.19 86 1013.8
20260902173050 78 231 1.0 6.0 0.00 0.19 0.19 87 1013.8
20260902172529 78 233 1.0 5.0 0.00 0.19 0.19 88 1014.1
20260902172009 77 231 2.0 5.0 0.00 0.19 0.19 89 1014.2
20260902171555 77 232 0.0 5.0 0.00 0.19 0.19 90 1014.3
20260902171033 76 235 0.0 5.0 0.00 0.19 0.19 90 1014.3
20260902170513 76 228 0.0 5.0 0.00 0.19 0.19 90 1014.4
20260902170057 76 228 1.0 5.0 0.00 0.19 0.19 90 1014.4
20260902165529 76 231 0.0 5.0 0.00 0.19 0.19 89 1014.5
20260902165008 76 231 0.0 2.0 0.00 0.19 0.19 88 1014.5
20260902164552 76 231 0.0 2.0 0.00 0.19 0.19 88 1014.6
20260902164032 76 231 0.0 5.0 0.00 0.19 0.19 87 1014.8
20260902163512 77 231 0.0 5.0 0.00 0.19 0.19 87 1015.3
20260902163100 77 267 0.0 5.0 0.00 0.19 0.19 87 1015.7
20260902162536 77 269 0.0 6.0 0.00 0.19 0.19 86 1016.1
20260902162016 77 336 3.0 7.0 0.00 0.19 0.19 85 1015.9
20260902161603 78 271 3.0 7.0 0.00 0.19 0.19 84 1015.2
20260902161040 78 250 2.0 6.0 0.00 0.19 0.19 85 1014.8
20260902160524 78 249 1.0 4.0 0.00 0.19 0.19 86 1014.4
20260902155523 78 249 1.0 7.0 0.00 0.19 0.19 86 1014.4
20260902155003 78 231 0.0 5.0 0.00 0.19 0.19 86 1014.5
20260902154550 78 231 0.0 5.0 0.00 0.19 0.19 86 1014.5
20260902154027 78 235 1.0 5.0 0.00 0.19 0.19 87 1014.7
20260902153507 78 231 1.0 5.0 0.00 0.19 0.19 87 1015.0
20260902153051 78 246 0.0 8.0 0.00 0.19 0.19 86 1015.0
20260902152534 78 247 3.0 8.0 0.00 0.19 0.19 86 1014.9
20260902152015 77 250 3.0 6.0 0.00 0.19 0.19 89 1014.9
20260902151601 77 248 1.0 6.0 0.00 0.19 0.19 90 1014.9
20260902151035 76 251 1.0 9.0 0.00 0.19 0.19 91 1015.0
20260902150518 76 246 0.0 5.0 0.00 0.19 0.19 94 1015.1
20260902150059 76 246 1.0 5.0 0.00 0.19 0.19 94 1014.9
20260902145521 75 248 0.0 3.0 0.00 0.19 0.19 95 1015.1
20260902145000 75 250 0.0 5.0 0.00 0.19 0.19 95 1015.1
20260902144545 74 250 0.0 5.0 0.00 0.19 0.19 95 1015.2
20260902144025 74 262 0.0 0.0 0.00 0.19 0.19 95 1015.4